Weather History for Eagle River, WI

Change the Weather History Date:

Thursday, February 27, 2014

  Actual Average Record
Temperature  
Mean Temperature -13 °F -  
Max Temperature -2 °F 35 °F 44 °F (2004)
Min Temperature -26 °F 13 °F -26 °F (2014)
Degree Days  
Heating Degree Days 78    
Moisture  
Dew Point -20 °F    
Average Humidity 59    
Maximum Humidity 72    
Minimum Humidity 40    
Precipitation  
Precipitation 0.00 in - - ()
Sea Level Pressure  
Sea Level Pressure 29.89 in    
Wind  
Wind Speed 12 mph (NW)    
Max Wind Speed 21 mph    
Max Gust Speed 30 mph    
Visibility 8 miles    
Events Snow    
Averages and records for this station are not official NWS values.
T = Trace of Precipitation, MM = Missing Value Source: NWS Daily Summary

Daily Weather History Graph

Daily Weather History Graph

Search for Another Location

Airport:

Trip Planner

Search our weather history database for the weather conditions in past years. The results will help you decide how hot, cold, wet, or windy it might be!

Date:

Astronomy

Feb. 27, 2014 Rise Set
Actual Time 6:39 AM CST 5:40 PM CST
Civil Twilight 6:09 AM CST 6:10 PM CST
Nautical Twilight 5:34 AM CST 6:45 PM CST
Astronomical Twilight 5:00 AM CST 7:20 PM CST
Moon 5:15 AM CST (2/27) 4:03 PM CST (2/27)
Length of Visible Light 12h 01m
Length of Day
11h 01m
Waning Crescent, 4% of the Moon is Illuminated
Feb 27
Waning Crescent
Mar 1
New
Mar 8
First Quarter
Mar 16
Full
Mar 23
Last Quarter

Hourly Weather History & Observations

Time (CST) Temp. Windchill Dew Point Humidity Pressure Visibility Wind Dir Wind Speed Gust Speed Precip Events Conditions
12:10 AM -2.2 °F -24.1 °F -10.8 °F 67% 29.56 in 1.8 mi NW 18.4 mph 26.5 mph N/A Snow Light Snow
12:35 AM -2.4 °F -23.1 °F -11.0 °F 67% 29.57 in 1.8 mi NNW 16.1 mph 28.8 mph N/A Snow Light Snow
12:55 AM -2.6 °F -21.1 °F -9.9 °F 71% 29.58 in 1.5 mi NNW 12.7 mph 23.0 mph N/A Snow Light Snow
1:15 AM -2.7 °F -20.5 °F -9.9 °F 71% 29.60 in 2.5 mi NNW 11.5 mph 16.1 mph N/A Snow Light Snow
1:35 AM -3.1 °F -26.4 °F -11.7 °F 67% 29.61 in 2.0 mi NW 20.7 mph 26.5 mph N/A Snow Light Snow
1:55 AM -3.5 °F -24.5 °F -13.2 °F 63% 29.62 in 4.0 mi NNW 16.1 mph 24.2 mph N/A   Haze
2:15 AM -4.0 °F -26.4 °F -13.4 °F 64% 29.63 in 3.0 mi NNW 18.4 mph 24.2 mph N/A   Haze
2:35 AM -4.5 °F -27.1 °F -14.3 °F 63% 29.65 in 2.5 mi NNW 18.4 mph 29.9 mph N/A Snow Light Snow
2:55 AM -4.9 °F -28.2 °F -14.4 °F 64% 29.66 in 4.0 mi NNW 19.6 mph 25.3 mph N/A   Haze
3:15 AM -5.8 °F -28.2 °F -14.8 °F 65% 29.68 in 4.0 mi NNW 17.3 mph 25.3 mph N/A   Haze
3:35 AM -6.2 °F -28.0 °F -15.0 °F 66% 29.69 in 5.0 mi NW 16.1 mph - N/A   Haze
3:55 AM -6.7 °F -29.3 °F -14.8 °F 68% 29.71 in 3.0 mi NNW 17.3 mph 21.9 mph N/A   Haze
4:15 AM -7.1 °F -29.8 °F -15.9 °F 66% 29.72 in 4.0 mi NNW 17.3 mph 23.0 mph N/A   Haze
4:35 AM -7.6 °F -30.5 °F -17.3 °F 63% 29.74 in 7.0 mi NNW 17.3 mph 24.2 mph N/A   Mostly Cloudy
4:50 AM -8.1 °F -30.5 °F -18.6 °F 60% 29.76 in 10.0 mi NNW 16.1 mph 19.6 mph N/A   Scattered Clouds
5:15 AM -8.9 °F -27.2 °F -18.8 °F 62% 29.78 in 10.0 mi NNW 10.4 mph - N/A   Clear
5:35 AM -9.6 °F -27.0 °F -19.3 °F 62% 29.79 in 10.0 mi NNW 9.2 mph 16.1 mph N/A   Clear
5:55 AM -9.9 °F -28.6 °F -18.8 °F 65% 29.80 in 10.0 mi NNW 10.4 mph - N/A   Scattered Clouds
6:15 AM -9.9 °F -28.6 °F -19.1 °F 64% 29.82 in 10.0 mi NNW 10.4 mph 18.4 mph N/A   Scattered Clouds
6:35 AM -11.0 °F -29.9 °F -19.8 °F 65% 29.83 in 10.0 mi NNW 10.4 mph 17.3 mph N/A   Scattered Clouds
6:55 AM -11.2 °F -30.1 °F -20.4 °F 64% 29.84 in 10.0 mi NNW 10.4 mph - N/A   Clear
7:15 AM -10.8 °F -30.7 °F -20.2 °F 63% 29.86 in 10.0 mi NW 11.5 mph - N/A   Clear
7:35 AM -10.5 °F -28.1 °F -18.8 °F 67% 29.87 in 1.8 mi NNW 9.2 mph - N/A   Haze
7:55 AM -9.9 °F -26.3 °F -18.9 °F 65% 29.88 in 4.0 mi NNW 8.1 mph - N/A   Haze
8:15 AM -9.4 °F -22.7 °F -18.8 °F 64% 29.88 in 7.0 mi NNW 5.8 mph - N/A   Scattered Clouds
8:35 AM -9.0 °F -29.3 °F -18.9 °F 62% 29.89 in 4.0 mi NNW 12.7 mph - N/A   Haze
8:55 AM -9.4 °F -27.9 °F -19.3 °F 62% 29.90 in 5.0 mi NNW 10.4 mph 19.6 mph N/A   Haze
9:15 AM -8.0 °F -29.6 °F -19.8 °F 56% 29.91 in 5.0 mi NNW 15.0 mph 20.7 mph N/A   Haze
9:30 AM -8.0 °F -28.0 °F -20.7 °F 54% 29.91 in 5.0 mi NNW 12.7 mph - N/A   Haze
9:55 AM -7.2 °F -26.2 °F -20.2 °F 53% 29.93 in 7.0 mi NW 11.5 mph 17.3 mph N/A   Overcast
10:15 AM -6.7 °F -26.4 °F -20.6 °F 51% 29.93 in 7.0 mi NNW 12.7 mph 17.3 mph N/A   Overcast
10:35 AM -6.7 °F -24.5 °F -20.6 °F 51% 29.94 in 10.0 mi NNW 10.4 mph - N/A   Overcast
10:55 AM -5.8 °F -26.0 °F -21.6 °F 46% 29.94 in 10.0 mi NW 13.8 mph - N/A   Mostly Cloudy
11:15 AM -6.3 °F -23.1 °F -21.6 °F 48% 29.94 in 10.0 mi NNW 9.2 mph - N/A   Overcast
11:35 AM -6.0 °F -25.5 °F -15.9 °F 62% 29.95 in 1.5 mi NW 12.7 mph - N/A Snow Light Snow
11:55 AM -5.6 °F -22.2 °F -19.8 °F 50% 29.95 in 10.0 mi North 9.2 mph - N/A   Overcast
12:15 PM -5.1 °F -21.5 °F -20.9 °F 47% 29.94 in 10.0 mi NW 9.2 mph - N/A   Overcast
12:35 PM -4.5 °F -22.8 °F -21.1 °F 45% 29.95 in 10.0 mi NW 11.5 mph 16.1 mph N/A   Overcast
12:55 PM -4.0 °F -23.7 °F -21.1 °F 44% 29.95 in 10.0 mi West 13.8 mph 17.3 mph N/A   Overcast
1:15 PM -4.0 °F -20.2 °F -21.6 °F 43% 29.95 in 10.0 mi NW 9.2 mph - N/A   Mostly Cloudy
1:35 PM -3.5 °F -20.5 °F -21.8 °F 41% 29.95 in 10.0 mi West 10.4 mph 17.3 mph N/A   Scattered Clouds
1:55 PM -3.1 °F -19.1 °F -20.4 °F 44% 29.96 in 10.0 mi NW 9.2 mph - N/A   Scattered Clouds
2:15 PM -2.9 °F -20.8 °F -20.4 °F 43% 29.97 in 10.0 mi WNW 11.5 mph 16.1 mph N/A   Scattered Clouds
2:35 PM -2.4 °F -17.1 °F -19.7 °F 44% 29.97 in 10.0 mi NW 8.1 mph - N/A   Clear
2:55 PM -2.6 °F -18.4 °F -21.1 °F 41% 29.97 in 10.0 mi NW 9.2 mph - N/A   Clear
3:15 PM -2.6 °F -16.0 °F -21.5 °F 40% 29.97 in 10.0 mi West 6.9 mph - N/A   Clear
3:35 PM -2.4 °F -18.2 °F -21.3 °F 40% 29.97 in 10.0 mi West 9.2 mph - N/A   Clear
3:55 PM -3.1 °F -19.1 °F -21.3 °F 42% 29.98 in 10.0 mi West 9.2 mph - N/A   Clear
4:15 PM -2.4 °F -15.8 °F -21.6 °F 40% 29.98 in 10.0 mi WNW 6.9 mph - N/A   Clear
4:35 PM -2.7 °F -14.8 °F -21.1 °F 41% 29.98 in 10.0 mi NW 5.8 mph - N/A   Clear
4:55 PM -3.1 °F -15.2 °F -21.1 °F 42% 29.97 in 10.0 mi NW 5.8 mph - N/A   Clear
5:15 PM -3.8 °F - -21.1 °F 43% 29.98 in 10.0 mi Calm Calm - N/A   Clear
5:35 PM -4.0 °F - -21.1 °F 44% 29.98 in 10.0 mi Calm Calm - N/A   Clear
5:55 PM -5.6 °F - -21.1 °F 47% 29.98 in 10.0 mi Calm Calm - N/A   Clear
6:15 PM -8.0 °F - -20.0 °F 56% 29.99 in 10.0 mi Calm Calm - N/A   Clear
6:35 PM -11.4 °F - -21.6 °F 60% 29.99 in 10.0 mi Calm Calm - N/A   Clear
6:55 PM -13.2 °F - -22.2 °F 64% 29.99 in 10.0 mi Calm Calm - N/A   Clear
7:15 PM -14.6 °F - -24.2 °F 62% 29.99 in 10.0 mi Calm Calm - N/A   Clear
7:35 PM -15.0 °F - -22.4 °F 69% 29.99 in 10.0 mi Calm Calm - N/A   Clear
7:55 PM -17.1 °F - -24.7 °F 69% 29.99 in 10.0 mi Calm Calm - N/A   Clear
8:15 PM -18.6 °F - -26.1 °F 68% 29.99 in 10.0 mi Calm Calm - N/A   Clear
8:35 PM -17.0 °F - -23.6 °F 72% 30.00 in 10.0 mi Calm Calm - N/A   Clear
8:55 PM -18.8 °F - -25.4 °F 72% 30.00 in 10.0 mi Calm Calm - N/A   Clear
9:15 PM -19.7 °F - -27.0 °F 69% 30.01 in 10.0 mi Calm Calm - N/A   Clear
9:35 PM -21.1 °F - -28.1 °F 70% 30.01 in 10.0 mi Calm Calm - N/A   Clear
9:55 PM -20.9 °F - -27.6 °F 71% 30.01 in 10.0 mi Calm Calm - N/A   Clear
10:15 PM -23.1 °F - -30.3 °F 69% 30.01 in 10.0 mi Calm Calm - N/A   Clear
10:35 PM -22.5 °F - -28.8 °F 72% 30.01 in 10.0 mi Calm Calm - N/A   Clear
10:55 PM -24.3 °F - -31.4 °F 70% 30.01 in 10.0 mi Calm Calm - N/A   Clear
11:15 PM -22.0 °F - -28.5 °F 72% 30.01 in 10.0 mi Calm Calm - N/A   Clear
11:35 PM -23.6 °F - -30.1 °F 72% 30.01 in 10.0 mi Calm Calm - N/A   Clear
11:55 PM -26.0 °F - -33.5 °F 67% 30.01 in 10.0 mi Calm Calm - N/A   Clear